When you browse on this site, cookies collect data to enhance your experience and personalize the content and advertising you see.
Visit our Privacy Policy to learn more. By continuing to use the site, you agree to this use of cookies and data.
  • In Hungary
  • List of Countries
  • For 7 days
  • Water Temperature
  • Weather Map
  • News
  • Weather Widgets
  • user-avatar
    Login

    Hourly Weather Zimovka

    Today, 18 September, Wednesday

    Time Temperature Precipitation Wind Pressure Humidity
    00:00 +7°C° 0 mm 2 mps 730 mmHg 97%
    01:00 +7°C° 0 mm 2 mps 731 mmHg 97%
    02:00 +7°C° 0 mm 2 mps 731 mmHg 96%
    03:00 +7°C° 0 mm 2 mps 731 mmHg 96%
    04:00 +7°C° 0 mm 2 mps 731 mmHg 96%
    05:00 +7°C° 0 mm 2 mps 732 mmHg 96%
    06:00 +7°C° 0 mm 2 mps 732 mmHg 96%
    07:00 +7°C° 0 mm 2 mps 732 mmHg 95%
    08:00 +7°C° 0 mm 2 mps 732 mmHg 95%
    09:00 +7°C° 0 mm 2 mps 733 mmHg 94%
    10:00 +8°C° 0.2 mm 2 mps 733 mmHg 92%
    11:00 +8°C° 0.2 mm 2 mps 734 mmHg 90%
    12:00 +9°C° 0.2 mm 2 mps 734 mmHg 89%
    13:00 +9°C° 0.3 mm 2 mps 734 mmHg 86%
    14:00 +10°C° 0.3 mm 2 mps 734 mmHg 83%
    15:00 +10°C° 0.3 mm 2 mps 735 mmHg 81%
    16:00 +10°C° 0.3 mm 1 mps 735 mmHg 86%
    17:00 +9°C° 0.3 mm 1 mps 735 mmHg 90%
    18:00 +8°C° 0.3 mm 1 mps 735 mmHg 95%
    19:00 +7°C° 0.1 mm 1 mps 735 mmHg 96%
    20:00 +7°C° 0.1 mm 1 mps 736 mmHg 96%
    21:00 +6°C° 0.1 mm 1 mps 736 mmHg 97%
    22:00 +6°C° 0 mm 1 mps 736 mmHg 97%
    23:00 +5°C° 0 mm 0 mps 736 mmHg 97%

    Tomorrow, 19 September, Thursday

    Time Temperature Precipitation Wind Pressure Humidity
    00:00 +4°C° 0 mm 0 mps 736 mmHg 97%
    01:00 +4°C° 0 mm 0 mps 736 mmHg 97%
    02:00 +5°C° 0 mm 1 mps 736 mmHg 98%
    03:00 +5°C° 0 mm 1 mps 736 mmHg 98%
    04:00 +6°C° 0.1 mm 1 mps 735 mmHg 98%
    05:00 +6°C° 0.1 mm 1 mps 735 mmHg 98%
    06:00 +5°C° 0.1 mm 2 mps 735 mmHg 97%
    07:00 +6°C° 0.1 mm 2 mps 735 mmHg 96%
    08:00 +5°C° 0.1 mm 3 mps 735 mmHg 94%
    09:00 +5°C° 0.1 mm 3 mps 735 mmHg 93%
    10:00 +5°C° 0.1 mm 4 mps 735 mmHg 88%
    11:00 +6°C° 0.1 mm 4 mps 736 mmHg 84%
    12:00 +6°C° 0.1 mm 4 mps 736 mmHg 79%
    13:00 +6°C° 0 mm 4 mps 736 mmHg 75%
    14:00 +7°C° 0 mm 4 mps 737 mmHg 70%
    15:00 +7°C° 0 mm 4 mps 737 mmHg 66%
    16:00 +7°C° 0 mm 3 mps 738 mmHg 68%
    17:00 +5°C° 0 mm 3 mps 739 mmHg 70%
    18:00 +5°C° 0 mm 2 mps 739 mmHg 72%
    19:00 +5°C° 0 mm 2 mps 739 mmHg 77%
    20:00 +4°C° 0 mm 2 mps 740 mmHg 82%
    21:00 +3°C° 0 mm 2 mps 740 mmHg 86%
    22:00 +2°C° 0 mm 2 mps 740 mmHg 89%
    23:00 +2°C° 0 mm 2 mps 741 mmHg 92%

    Day after tomorrow, 20 September, Friday

    Time Temperature Precipitation Wind Pressure Humidity
    00:00 +1°C° 0 mm 2 mps 741 mmHg 94%
    01:00 +1°C° 0 mm 2 mps 742 mmHg 95%
    02:00 -1°C° 0 mm 2 mps 742 mmHg 96%
    03:00 -1°C° 0 mm 2 mps 743 mmHg 97%
    04:00 -1°C° 0 mm 2 mps 743 mmHg 97%
    05:00 -1°C° 0 mm 2 mps 743 mmHg 97%
    06:00 -1°C° 0 mm 2 mps 744 mmHg 97%
    07:00 +1°C° 0 mm 2 mps 744 mmHg 88%
    08:00 +3°C° 0 mm 2 mps 744 mmHg 79%
    09:00 +5°C° 0 mm 2 mps 745 mmHg 71%
    10:00 +6°C° 0 mm 2 mps 745 mmHg 65%
    11:00 +7°C° 0 mm 3 mps 745 mmHg 59%
    12:00 +8°C° 0 mm 3 mps 745 mmHg 53%
    13:00 +8°C° 0 mm 3 mps 745 mmHg 53%
    14:00 +7°C° 0 mm 3 mps 745 mmHg 54%
    15:00 +7°C° 0 mm 3 mps 746 mmHg 55%
    16:00 +5°C° 0 mm 3 mps 746 mmHg 62%
    17:00 +5°C° 0 mm 2 mps 746 mmHg 70%
    18:00 +3°C° 0 mm 2 mps 746 mmHg 77%
    19:00 +3°C° 0 mm 2 mps 746 mmHg 79%
    20:00 +3°C° 0 mm 2 mps 746 mmHg 81%
    21:00 +2°C° 0 mm 2 mps 746 mmHg 83%
    22:00 +2°C° 0 mm 2 mps 746 mmHg 85%
    23:00 +2°C° 0 mm 2 mps 746 mmHg 88%

    21 September, Saturday

    Time Temperature Precipitation Wind Pressure Humidity
    00:00 +2°C° 0 mm 2 mps 746 mmHg 90%
    01:00 +2°C° 0 mm 2 mps 746 mmHg 92%
    02:00 +2°C° 0 mm 2 mps 745 mmHg 94%
    03:00 +2°C° 0 mm 2 mps 745 mmHg 95%
    04:00 +2°C° 0.2 mm 2 mps 745 mmHg 96%
    05:00 +2°C° 0.2 mm 2 mps 745 mmHg 96%
    06:00 +2°C° 0.2 mm 2 mps 745 mmHg 96%
    07:00 +3°C° 0 mm 2 mps 745 mmHg 92%
    08:00 +4°C° 0 mm 2 mps 745 mmHg 87%
    09:00 +4°C° 0 mm 2 mps 745 mmHg 82%
    10:00 +5°C° 0.1 mm 2 mps 745 mmHg 77%
    11:00 +5°C° 0.1 mm 3 mps 745 mmHg 71%
    12:00 +5°C° 0.1 mm 3 mps 744 mmHg 65%
    13:00 +7°C° 0 mm 3 mps 744 mmHg 61%
    14:00 +7°C° 0 mm 3 mps 744 mmHg 57%
    15:00 +7°C° 0 mm 3 mps 744 mmHg 54%
    16:00 +6°C° 0 mm 2 mps 744 mmHg 61%
    17:00 +4°C° 0 mm 2 mps 743 mmHg 68%
    18:00 +3°C° 0 mm 1 mps 743 mmHg 75%
    19:00 +3°C° 0 mm 1 mps 743 mmHg 79%
    20:00 +2°C° 0 mm 1 mps 743 mmHg 82%
    21:00 +1°C° 0 mm 1 mps 743 mmHg 85%
    22:00 +1°C° 0 mm 1 mps 742 mmHg 87%
    23:00 +1°C° 0 mm 1 mps 742 mmHg 88%

    22 September, Sunday

    Time Temperature Precipitation Wind Pressure Humidity
    00:00 0°C° 0 mm 1 mps 742 mmHg 90%
    01:00 0°C° 0 mm 1 mps 741 mmHg 89%
    02:00 0°C° 0 mm 1 mps 741 mmHg 89%
    03:00 0°C° 0 mm 1 mps 740 mmHg 88%
    04:00 0°C° 0 mm 1 mps 740 mmHg 88%
    05:00 0°C° 0 mm 1 mps 740 mmHg 87%
    06:00 0°C° 0 mm 1 mps 739 mmHg 86%
    07:00 +2°C° 0 mm 1 mps 739 mmHg 78%
    08:00 +4°C° 0 mm 1 mps 739 mmHg 69%
    09:00 +6°C° 0 mm 1 mps 739 mmHg 60%
    10:00 +7°C° 0.1 mm 1 mps 738 mmHg 56%
    11:00 +8°C° 0.1 mm 1 mps 738 mmHg 53%
    12:00 +9°C° 0.1 mm 1 mps 738 mmHg 49%
    13:00 +9°C° 0.1 mm 1 mps 737 mmHg 49%
    14:00 +8°C° 0.1 mm 1 mps 737 mmHg 49%
    15:00 +8°C° 0.1 mm 1 mps 737 mmHg 49%
    16:00 +6°C° 0 mm 1 mps 737 mmHg 60%
    17:00 +5°C° 0 mm 1 mps 737 mmHg 71%
    18:00 +2°C° 0 mm 2 mps 738 mmHg 82%
    19:00 +1°C° 0 mm 2 mps 738 mmHg 85%
    20:00 +2°C° 0 mm 1 mps 738 mmHg 89%
    21:00 +1°C° 0 mm 1 mps 738 mmHg 92%
    22:00 +1°C° 0 mm 1 mps 738 mmHg 93%
    23:00 -2°C° 0 mm 2 mps 738 mmHg 95%

    23 September, Monday

    Time Temperature Precipitation Wind Pressure Humidity
    00:00 -2°C° 0 mm 2 mps 738 mmHg 96%
    01:00 -3°C° 0 mm 2 mps 738 mmHg 96%
    02:00 -3°C° 0 mm 2 mps 739 mmHg 97%
    03:00 -3°C° 0 mm 2 mps 739 mmHg 97%
    04:00 -3°C° 0 mm 2 mps 739 mmHg 97%
    05:00 -3°C° 0 mm 2 mps 739 mmHg 97%
    06:00 -3°C° 0 mm 2 mps 739 mmHg 97%
    07:00 -2°C° 0 mm 2 mps 739 mmHg 93%
    08:00 -1°C° 0 mm 2 mps 739 mmHg 89%
    09:00 +2°C° 0 mm 2 mps 739 mmHg 86%
    10:00 +1°C° 0.2 mm 3 mps 739 mmHg 89%
    11:00 +1°C° 0.2 mm 3 mps 739 mmHg 91%
    12:00 0°C° 0.2 mm 4 mps 739 mmHg 94%
    13:00 0°C° 0.1 mm 4 mps 740 mmHg 91%
    14:00 +1°C° 0.1 mm 4 mps 740 mmHg 87%
    15:00 +1°C° 0.1 mm 4 mps 740 mmHg 83%
    16:00 +1°C° 0.1 mm 4 mps 740 mmHg 85%
    17:00 0°C° 0.1 mm 4 mps 740 mmHg 87%
    18:00 +1°C° 0.1 mm 3 mps 740 mmHg 88%
    19:00 0°C° 0 mm 3 mps 740 mmHg 91%
    20:00 0°C° 0 mm 3 mps 740 mmHg 93%
    21:00 -1°C° 0 mm 4 mps 740 mmHg 96%
    22:00 0°C° 0.1 mm 3 mps 740 mmHg 96%
    23:00 0°C° 0.1 mm 3 mps 740 mmHg 96%
    Show more